Regional Weather Roundup
Issued by NWS Cleveland, OH

Home | Current Version | Previous Version | Graphics & Text | Print | Product List | Glossary On
Versions: 1 2 3 4 5 6 7 8 9 10 11 12 13 14 15 16 17 18 19 20 21 22 23 24 25 26 27 28 29 30 31 32 33 34 35 36 37 38 39 40 41 42 43 44 45 46 47 48 49 50
414
ASUS41 KCLE 242100
RWRCLE
OHIO REGIONAL WEATHER ROUNDUP
NATIONAL WEATHER SERVICE WILMINGTON, OH
500 PM EDT SAT JUN 24 2017

NOTE: "FAIR" INDICATES FEW OR NO CLOUDS BELOW 12,000 FEET WITH NO
SIGNIFICANT WEATHER AND/OR OBSTRUCTIONS TO VISIBILITY.

OHZ001>008-015>018-024>027-034-035-043-044-242200-
   NORTHWEST OHIO

CITY           SKY/WX    TMP DP  RH WIND       PRES   REMARKS
DEFIANCE       FAIR      74  53  48 W12G22    29.95R
FINDLAY        PTSUNNY   78  55  44 W20       29.93S
TOLEDO EXPRESS FAIR      75  53  46 W14       29.92S
TOLEDO EXEC    FAIR      77  55  46 W17G26    29.92S
LIMA           FAIR      76  57  51 W18G29    29.96S
$$

OHZ009>014-019>023-028>033-038-089-242200-
   NORTHEAST OHIO

CITY           SKY/WX    TMP DP  RH WIND       PRES   REMARKS
CLE-HOPKINS    FAIR      79  55  43 W12       29.92F
CLE-LAKEFRONT  FAIR      75  61  61 NW8       29.90F
CUY CO. ARPT   MOSUNNY   77  55  47 NW12G21   29.93R
LORAIN-ELYRIA  FAIR      77  52  41 W13       29.92S
ASHTABULA      FAIR      75  51  43 W15G26    29.92S
AKRON-CANTON   FAIR      77  53  43 W13G24    29.94R
WOOSTER        NOT AVBL
MANSFIELD      FAIR      76  55  48 W13G20    29.96S
YOUNGSTOWN     PTSUNNY   74  55  51 NW9       29.92R
$$

OHZ042-051>053-060>062-070>072-077>081-242200-
  SOUTHWEST OHIO

CITY           SKY/WX    TMP DP  RH WIND       PRES   REMARKS
CINC-COVINGTON PTSUNNY   78  59  51 NW13      30.01F
CINC-LUNKEN    PTSUNNY   79  59  50 NW9       30.00S
HAMILTON       FAIR      78  57  48 W16G22    30.01S
DAYTON         NOT AVBL
WRIGHT-PAT AFB LGT RAIN  78  55  44 SW15      29.98S
DAYTON GENERAL FAIR      77  54  44 W13G18    29.99F
WILMINGTON     FAIR      76  57  51 W17       29.99F
$$

OHZ036-037-039>041-045>050-054>059-063>069-073>076-082>088-242200-
  CENTRAL AND SOUTHEAST OHIO

CITY           SKY/WX    TMP DP  RH WIND       PRES   REMARKS
COLUMBUS       FAIR      78  55  44 W15G22    29.96S
OSU AIRPORT    FAIR      77  58  51 W14       29.97S
BOLTON FIELD   MOSUNNY   75  57  53 W10G16    29.99R
RICKENBACK AFB NOT AVBL
NEWARK         FAIR      82  54  37 W12G21    29.96S
MARION         FAIR      77  52  41 W17G23    29.96F
LANCASTER      PTSUNNY   77  59  53 NW8       29.98S
ZANESVILLE     PTSUNNY   77  58  51 W12       29.96S
NEW PHILLY     FAIR      78  57  48 W10G18    29.96R
$$




USA.gov is the U.S. government's official web portal to all federal, state and local government web resources and services.